カタログに戻る

FENGYUN 1C DEB

運用中PO
NORAD 31630·DEBRIS·🇨🇳 China

打ち上げ May 10, 1999 から Taiyuan Satellite Launch Center

Loading…

次のパス (今後24時間)

TLE

最新Source: Space-Track

元期: Sep 12, 2026, 06:43 UTC

1 31630U 99025CAL 26255.28011143  .00019229  00000-0  75372-3 0  9998
2 31630  98.0982  84.5067 0135928 146.2998 214.6970 15.17576391 27113

AllMySatでFENGYUN 1C DEBをリアルタイム追跡

Download on the App Store